sat.trackr.live / text

‹ back to catalog

STARLINK-37470

NORAD 68820 · 2026-089U

PAYLOAD ACTIVE UNKNOWN

§ Identity

Operator
Country
US
Launch date
2026-04-23
Launch site
AFWTR
Launch vehicle
Mass (kg)
RCS (m²)

Purposes: comms

External: N2YO · Heavens-Above · Gunter

§ Orbital elements

Epoch: 2026-05-25T04:00:03.998880Z

Period
91.42 min
Inclination
97.2849°
Eccentricity
0.0001440
Mean motion
15.75225280 rev/d
Perigee alt
343.0 km
Apogee alt
345.0 km
Semi-major
6,722.1 km
B*
-6.2771e-4
RAAN
351.8413°
Arg perigee
86.3089°
Mean anomaly
268.3925°
Rev number
603

§ Raw data

STARLINK-374701 68820U 26089U   26145.16671295 -.00092890  00000+0 -62771-3 0  99992 68820  97.2849 351.8413 0001440  86.3089 268.3925 15.75225280  6034

JSON: /api/v1/satellites/68820 · /tle

For live sub-satellite position, see the globe view (requires WebGL).

§ Visibility from observer

Set your observer location to see the next 7 days of passes ≥ 10°. The values pass through the URL so the page stays shareable.

No JS? Fill the form by hand. The geolocation button needs JavaScript.